DW7379 Weather Reports


time (UTC)temp
C
wind
direction
speed
KPH
gust
KPH
rain 1hr
cm
rain 24hr
cm
rain mn
cm
humidity
%
barometer
mb
20260510162405 12 52 9.7 22.5 0.00 0.00 0.00 74 1013.5
20260510161904 12 52 11.3 20.9 0.00 0.00 0.00 74 1013.6
20260510161405 12 44 9.7 22.5 0.00 0.00 0.00 74 1013.7
20260510160903 12 52 9.7 25.7 0.00 0.00 0.00 75 1013.8
20260510160404 12 43 11.3 24.1 0.00 0.00 0.00 75 1013.8
20260510155904 12 41 11.3 24.1 0.00 0.00 0.00 75 1013.8
20260510155405 12 54 12.9 32.2 0.00 0.00 0.00 74 1013.9
20260510154904 12 44 8.0 32.2 0.00 0.00 0.00 74 1013.9
20260510154403 12 44 11.3 32.2 0.00 0.00 0.00 75 1013.9
20260510153903 12 51 11.3 27.4 0.00 0.00 0.00 74 1014.0
20260510153404 12 51 12.9 22.5 0.00 0.00 0.00 75 1014.0
20260510152905 12 36 14.5 32.2 0.00 0.00 0.00 75 1014.0
20260510152405 12 61 11.3 24.1 0.00 0.00 0.00 75 1014.0
20260510151904 12 46 16.1 29.0 0.00 0.00 0.00 74 1014.1
20260510151404 12 47 11.3 24.1 0.00 0.00 0.00 75 1014.2
20260510150904 12 32 12.9 24.1 0.00 0.00 0.00 75 1014.2
20260510150404 12 40 14.5 29.0 0.00 0.00 0.00 74 1014.3
20260510145903 12 54 9.7 20.9 0.00 0.00 0.00 75 1014.4
20260510145404 12 51 11.3 29.0 0.00 0.00 0.00 75 1014.4
20260510143903 12 35 9.7 19.3 0.00 0.00 0.00 77 1014.6
20260510142903 12 60 12.9 24.1 0.00 0.00 0.00 77 1014.7
20260510142405 12 43 14.5 27.4 0.00 0.00 0.00 77 1014.6
20260510141903 12 44 8.0 25.7 0.00 0.00 0.00 78 1014.7
20260510141404 12 38 14.5 24.1 0.00 0.00 0.00 78 1014.7
20260510140904 12 44 12.9 22.5 0.00 0.00 0.00 79 1014.7
20260510140404 12 37 9.7 19.3 0.00 0.00 0.00 81 1014.7
20260510135905 12 40 9.7 22.5 0.00 0.00 0.00 81 1014.6
20260510135404 12 35 14.5 27.4 0.00 0.00 0.00 80 1014.7
20260510134905 12 49 11.3 19.3 0.00 0.00 0.00 81 1014.7
20260510134405 11 48 11.3 27.4 0.00 0.00 0.00 81 1014.7
20260510133904 11 30 9.7 19.3 0.00 0.00 0.00 82 1014.7
20260510133404 11 38 9.7 19.3 0.00 0.00 0.00 82 1014.7
20260510132904 11 65 4.8 16.1 0.00 0.00 0.00 83 1014.8
20260510132405 11 53 6.4 19.3 0.00 0.00 0.00 83 1014.9
20260510131904 11 49 6.4 16.1 0.00 0.00 0.00 83 1014.9
20260510130904 11 39 11.3 22.5 0.00 0.00 0.00 84 1014.8
20260510130404 11 44 9.7 19.3 0.00 0.00 0.00 84 1014.8
20260510125404 11 42 16.1 32.2 0.00 0.00 0.00 84 1014.7
20260510124904 11 43 9.7 25.7 0.00 0.00 0.00 84 1014.8
20260510124404 11 26 14.5 22.5 0.00 0.00 0.00 85 1014.9
20260510123903 11 19 12.9 22.5 0.00 0.00 0.00 85 1015.0
20260510122904 11 40 11.3 27.4 0.00 0.00 0.00 85 1015.2
20260510122404 11 50 9.7 19.3 0.00 0.00 0.00 85 1015.3
20260510121903 11 44 8.0 19.3 0.00 0.00 0.00 85 1015.4
20260510121405 11 47 8.0 19.3 0.00 0.00 0.00 85 1015.4
20260510120904 11 52 4.8 14.5 0.00 0.00 0.00 85 1015.5
20260510120404 11 49 8.0 12.9 0.00 0.00 0.00 85 1015.6
20260510115904 11 44 9.7 14.5 0.00 0.00 0.00 84 1015.7
20260510115404 11 48 4.8 19.3 0.00 0.00 0.00 84 1015.7
20260510114904 11 38 6.4 19.3 0.00 0.00 0.00 84 1015.8
20260510114404 11 47 4.8 12.9 0.00 0.00 0.00 84 1015.9
20260510113904 11 39 4.8 19.3 0.00 0.00 0.00 83 1015.9
20260510111904 11 23 9.7 19.3 0.00 0.00 0.00 81 1015.9
20260510111404 11 67 4.8 11.3 0.00 0.00 0.00 82 1015.9
20260510110904 11 43 6.4 19.3 0.00 0.00 0.00 81 1016.0
20260510110404 11 44 9.7 22.5 0.00 0.00 0.00 80 1016.0
20260510105903 11 54 9.7 19.3 0.00 0.00 0.00 79 1016.1
20260510105404 11 52 11.3 25.7 0.00 0.00 0.00 79 1016.1
20260510104904 11 53 9.7 19.3 0.00 0.00 0.00 78 1016.0
20260510103903 11 57 9.7 20.9 0.00 0.00 0.00 77 1016.1
20260510102405 11 34 9.7 22.5 0.00 0.00 0.00 77 1016.0
20260510101904 11 52 9.7 24.1 0.00 0.00 0.00 76 1016.0
20260510101404 11 43 11.3 24.1 0.00 0.00 0.00 76 1016.0
20260510100403 11 46 14.5 25.7 0.00 0.00 0.00 75 1016.0
20260510095904 12 38 9.7 29.0 0.00 0.00 0.00 75 1016.0
20260510095405 12 25 11.3 27.4 0.00 0.00 0.00 75 1016.0
20260510094905 12 33 9.7 22.5 0.00 0.00 0.00 74 1016.0
20260510094404 12 40 14.5 24.1 0.00 0.00 0.00 73 1015.9
20260510093903 12 37 9.7 22.5 0.00 0.00 0.00 73 1015.9
20260510093403 12 39 11.3 25.7 0.00 0.00 0.00 72 1016.0
20260510092904 12 29 12.9 27.4 0.00 0.00 0.00 71 1016.0
20260510092404 12 24 12.9 27.4 0.00 0.00 0.00 71 1015.9
20260510091903 12 50 9.7 25.7 0.00 0.00 0.00 72 1015.9
20260510091404 12 43 14.5 32.2 0.00 0.00 0.00 71 1016.0
20260510090903 12 51 17.7 25.7 0.00 0.00 0.00 71 1016.0
20260510090403 12 37 12.9 29.0 0.00 0.00 0.00 71 1016.0
20260510085904 12 46 12.9 29.0 0.00 0.00 0.00 71 1016.0
20260510084904 12 32 12.9 24.1 0.00 0.00 0.00 72 1016.1
20260510084404 12 34 11.3 24.1 0.00 0.00 0.00 72 1016.1
20260510083904 12 33 8.0 19.3 0.00 0.00 0.00 73 1016.0
20260510083404 12 44 14.5 27.4 0.00 0.00 0.00 73 1016.1
20260510082904 11 50 9.7 20.9 0.00 0.00 0.00 73 1016.1
20260510081904 11 37 9.7 25.7 0.00 0.00 0.00 73 1016.0
20260510081403 11 39 16.1 32.2 0.00 0.00 0.00 73 1016.0
20260510080904 11 23 9.7 27.4 0.00 0.00 0.00 73 1016.1
20260510080405 11 33 8.0 19.3 0.00 0.00 0.00 74 1016.0
20260510075904 11 35 11.3 24.1 0.00 0.00 0.00 73 1015.9
20260510075403 11 40 9.7 32.2 0.00 0.00 0.00 73 1016.0
20260510074905 11 49 11.3 27.4 0.00 0.00 0.00 73 1016.0
20260510074404 11 39 11.3 25.7 0.00 0.00 0.00 73 1016.0
20260510073904 11 35 8.0 20.9 0.00 0.00 0.00 73 1015.9
20260510073405 11 35 11.3 32.2 0.00 0.00 0.00 73 1015.9
20260510072903 11 31 11.3 32.2 0.00 0.00 0.00 74 1016.0
20260510071905 11 42 11.3 19.3 0.00 0.00 0.00 74 1015.9
20260510071403 11 41 9.7 29.0 0.00 0.00 0.00 75 1015.9
20260510065903 11 40 12.9 22.5 0.00 0.00 0.00 75 1016.0
20260510065404 11 26 14.5 29.0 0.00 0.00 0.00 75 1015.9
20260510064904 11 31 9.7 22.5 0.00 0.00 0.00 75 1015.9
20260510064404 11 30 9.7 27.4 0.00 0.00 0.00 76 1016.0
20260510063903 11 45 9.7 32.2 0.00 0.00 0.00 76 1015.9
20260510063404 11 41 11.3 27.4 0.00 0.00 0.00 76 1015.9
20260510062904 11 45 14.5 27.4 0.00 0.00 0.00 76 1015.9
20260510061904 11 41 11.3 22.5 0.00 0.00 0.00 77 1015.9
20260510060903 11 46 11.3 29.0 0.00 0.00 0.00 77 1016.0
20260510060404 11 39 12.9 27.4 0.00 0.00 0.00 77 1015.9
20260510055903 11 44 11.3 29.0 0.00 0.00 0.00 77 1015.9
20260510055404 11 43 14.5 27.4 0.00 0.00 0.00 77 1015.9
20260510054904 10 34 9.7 27.4 0.00 0.00 0.00 77 1015.9
20260510054403 10 24 8.0 22.5 0.00 0.00 0.00 77 1016.0
20260510053903 10 45 9.7 25.7 0.00 0.00 0.00 77 1015.9
20260510053403 10 42 9.7 24.1 0.00 0.00 0.00 78 1016.0
20260510052904 10 43 11.3 24.1 0.00 0.00 0.00 77 1016.0
20260510052405 11 34 14.5 25.7 0.00 0.00 0.00 77 1016.0
20260510051904 11 41 8.0 19.3 0.00 0.00 0.00 77 1016.0
20260510050903 10 46 8.0 19.3 0.00 0.00 0.00 77 1016.0
20260510050405 11 29 12.9 27.4 0.00 0.00 0.00 77 1015.9
20260510045903 11 32 8.0 25.7 0.00 0.00 0.00 77 1015.9
20260510045404 11 31 11.3 25.7 0.00 0.00 0.00 77 1015.9
20260510044904 11 27 11.3 25.7 0.00 0.00 0.00 77 1015.9
20260510044404 11 50 11.3 25.7 0.00 0.00 0.00 77 1015.9
20260510043904 11 33 11.3 20.9 0.00 0.00 0.00 77 1015.8
20260510042903 11 29 11.3 22.5 0.00 0.00 0.00 76 1015.9
20260510042406 11 36 11.3 22.5 0.00 0.00 0.00 76 1015.8
20260510041904 11 44 9.7 19.3 0.00 0.00 0.00 76 1015.8
20260510041405 11 31 9.7 20.9 0.00 0.00 0.00 75 1015.8
20260510040903 11 39 11.3 20.9 0.00 0.00 0.00 75 1015.9
20260510040404 11 32 9.7 24.1 0.00 0.00 0.00 74 1015.9
20260510035905 11 29 8.0 20.9 0.00 0.00 0.00 73 1016.0
20260510035405 11 36 8.0 20.9 0.00 0.00 0.00 73 1016.0
20260510034904 11 50 9.7 22.5 0.00 0.00 0.00 72 1016.0
20260510034404 11 31 8.0 27.4 0.00 0.00 0.00 71 1016.0
20260510033905 11 35 9.7 24.1 0.00 0.00 0.00 70 1016.1
20260510032904 11 26 14.5 24.1 0.00 0.00 0.00 68 1016.1
20260510031904 12 26 12.9 24.1 0.00 0.00 0.00 67 1016.1
20260510031404 12 30 12.9 22.5 0.00 0.00 0.00 66 1016.1
20260510030904 12 21 8.0 22.5 0.00 0.00 0.00 66 1016.2
20260510030404 12 49 9.7 22.5 0.00 0.00 0.00 65 1016.2
20260510025405 12 35 11.3 24.1 0.00 0.00 0.00 65 1016.3
20260510024904 12 37 14.5 29.0 0.00 0.00 0.00 64 1016.2
20260510024404 12 38 9.7 22.5 0.00 0.00 0.00 64 1016.2
20260510023404 12 38 9.7 19.3 0.00 0.00 0.00 64 1016.3
20260510022404 12 53 6.4 25.7 0.00 0.00 0.00 63 1016.2
20260510021903 12 46 9.7 19.3 0.00 0.00 0.00 62 1016.2
20260510021404 12 46 4.8 14.5 0.00 0.00 0.00 62 1016.2
20260510020904 12 60 4.8 19.3 0.00 0.00 0.00 61 1016.3
20260510020403 12 54 4.8 19.3 0.00 0.00 0.00 61 1016.3
20260510015904 12 50 6.4 19.3 0.00 0.00 0.00 60 1016.3
20260510015404 12 51 6.4 16.1 0.00 0.00 0.00 59 1016.3
20260510014905 12 50 4.8 14.5 0.00 0.00 0.00 59 1016.3
20260510014404 13 51 8.0 19.3 0.00 0.00 0.00 59 1016.3
20260510013904 13 58 4.8 19.3 0.00 0.00 0.00 59 1016.3
20260510012904 13 54 8.0 14.5 0.00 0.00 0.00 58 1016.2
20260510012404 13 40 9.7 22.5 0.00 0.00 0.00 57 1016.2
20260510011403 13 39 9.7 14.5 0.00 0.00 0.00 57 1016.3
20260510010904 13 50 6.4 12.9 0.00 0.00 0.00 57 1016.3
20260510010404 13 45 6.4 12.9 0.00 0.00 0.00 57 1016.3
20260510005904 13 55 3.2 9.7 0.00 0.00 0.00 56 1016.4
20260510005404 13 53 4.8 12.9 0.00 0.00 0.00 56 1016.4
20260510004904 13 29 3.2 9.7 0.00 0.00 0.00 56 1016.4
20260510004405 13 60 6.4 12.9 0.00 0.00 0.00 55 1016.4
20260510003903 13 57 3.2 12.9 0.00 0.00 0.00 55 1016.4
20260510003404 13 63 8.0 19.3 0.00 0.00 0.00 55 1016.4
20260510002405 13 58 4.8 14.5 0.00 0.00 0.00 55 1016.4
20260510001403 13 78 6.4 14.5 0.00 0.00 0.00 55 1016.3
20260510000905 13 71 4.8 20.9 0.00 0.00 0.00 55 1016.4
20260509235904 13 71 3.2 11.3 0.00 0.00 0.00 54 1016.3
20260509235404 13 69 8.0 14.5 0.00 0.00 0.00 54 1016.2
20260509234904 13 66 4.8 12.9 0.00 0.00 0.00 53 1016.1
20260509233405 13 77 9.7 19.3 0.00 0.00 0.00 52 1016.1
20260509232903 13 67 8.0 19.3 0.00 0.00 0.00 51 1016.0
20260509232404 13 69 8.0 22.5 0.00 0.00 0.00 51 1016.1
20260509231904 14 63 9.7 19.3 0.00 0.00 0.00 51 1016.2
20260509231403 14 50 9.7 19.3 0.00 0.00 0.00 51 1016.3
20260509230904 14 64 6.4 19.3 0.00 0.00 0.00 51 1016.3
20260509225904 14 70 4.8 14.5 0.00 0.00 0.00 49 1016.1
20260509225404 14 69 8.0 19.3 0.00 0.00 0.00 48 1016.1
20260509224905 14 58 9.7 19.3 0.00 0.00 0.00 48 1016.1
20260509224403 14 58 4.8 19.3 0.00 0.00 0.00 47 1015.9
20260509223904 14 60 8.0 19.3 0.00 0.00 0.00 47 1015.9
20260509222904 14 53 8.0 20.9 0.00 0.00 0.00 46 1016.0
20260509222404 15 65 11.3 22.5 0.00 0.00 0.00 45 1016.0
20260509221905 15 57 9.7 20.9 0.00 0.00 0.00 45 1016.0
20260509220904 15 57 9.7 20.9 0.00 0.00 0.00 45 1016.1
20260509220403 15 49 6.4 19.3 0.00 0.00 0.00 45 1015.9
20260509215904 15 54 8.0 19.3 0.00 0.00 0.00 45 1015.9
20260509215403 15 47 12.9 25.7 0.00 0.00 0.00 45 1015.9
20260509214904 15 55 11.3 19.3 0.00 0.00 0.00 45 1015.9
20260509214404 15 54 11.3 24.1 0.00 0.00 0.00 45 1015.9
20260509212404 15 46 8.0 19.3 0.00 0.00 0.00 44 1015.8
20260509211903 15 45 11.3 25.7 0.00 0.00 0.00 44 1015.9
20260509210905 16 53 9.7 20.9 0.00 0.00 0.00 44 1015.8
20260509210404 16 55 9.7 22.5 0.00 0.00 0.00 44 1015.9
20260509205904 16 61 9.7 19.3 0.00 0.00 0.00 43 1015.8
20260509205404 16 53 8.0 22.5 0.00 0.00 0.00 43 1015.8
20260509204905 16 50 8.0 22.5 0.00 0.00 0.00 42 1015.7
20260509204403 16 59 9.7 19.3 0.00 0.00 0.00 42 1015.7
20260509203904 16 56 8.0 22.5 0.00 0.00 0.00 44 1015.7
20260509203404 16 57 4.8 14.5 0.00 0.00 0.00 44 1015.6
20260509202403 16 63 6.4 12.9 0.00 0.00 0.00 46 1015.4
20260509201904 16 45 6.4 19.3 0.00 0.00 0.00 46 1015.3
20260509201404 17 48 8.0 19.3 0.00 0.00 0.00 46 1015.2
20260509200903 17 47 9.7 22.5 0.00 0.00 0.00 47 1015.1
20260509200404 17 49 9.7 19.3 0.00 0.00 0.00 48 1015.1
20260509195904 17 51 8.0 19.3 0.00 0.00 0.00 49 1015.1
20260509195404 17 66 9.7 22.5 0.00 0.00 0.00 50 1015.0
20260509194904 17 55 9.7 24.1 0.00 0.00 0.00 50 1015.0
20260509194404 17 53 6.4 19.3 0.00 0.00 0.00 51 1014.9
20260509193904 17 48 8.0 19.3 0.00 0.00 0.00 51 1014.9
20260509193404 18 49 3.2 16.1 0.00 0.00 0.00 51 1014.8
20260509192904 18 50 9.7 20.9 0.00 0.00 0.00 50 1014.9
20260509192404 18 49 6.4 14.5 0.00 0.00 0.00 50 1014.9
20260509191404 18 46 9.7 24.1 0.00 0.00 0.00 49 1015.0
20260509190904 18 61 11.3 19.3 0.00 0.00 0.00 49 1015.0
20260509190404 18 48 8.0 19.3 0.00 0.00 0.00 48 1014.9
20260509185904 18 66 9.7 20.9 0.00 0.00 0.00 48 1014.9
20260509185404 18 67 9.7 19.3 0.00 0.00 0.00 48 1014.8
20260509184903 18 62 8.0 19.3 0.00 0.00 0.00 48 1014.8
20260509184404 18 55 9.7 20.9 0.00 0.00 0.00 48 1014.7
20260509183904 18 58 6.4 16.1 0.00 0.00 0.00 49 1014.5
20260509183404 18 57 8.0 22.5 0.00 0.00 0.00 49 1014.5
20260509182904 18 55 9.7 19.3 0.00 0.00 0.00 50 1014.6
20260509182404 18 66 6.4 14.5 0.00 0.00 0.00 52 1014.6
20260509181904 18 39 4.8 19.3 0.00 0.00 0.00 54 1014.6
20260509181404 18 81 4.8 14.5 0.00 0.00 0.00 57 1014.7
20260509180904 18 87 4.8 20.9 0.00 0.00 0.00 59 1014.7
20260509180404 18 96 6.4 12.9 0.00 0.00 0.00 60 1014.7
20260509175405 18 100 3.2 9.7 0.00 0.00 0.00 61 1014.5
20260509174903 18 89 4.8 11.3 0.00 0.00 0.00 60 1014.5
20260509174403 18 84 4.8 11.3 0.00 0.00 0.00 59 1014.5
20260509173904 18 61 3.2 4.8 0.00 0.00 0.00 58 1014.5
20260509172903 18 97 4.8 11.3 0.00 0.00 0.00 58 1014.6
20260509172404 18 120 4.8 9.7 0.00 0.00 0.00 58 1014.6
20260509171903 18 114 6.4 11.3 0.00 0.00 0.00 58 1014.7
20260509171404 18 104 6.4 9.7 0.00 0.00 0.00 57 1014.6
20260509170903 18 103 8.0 12.9 0.00 0.00 0.00 56 1014.6
20260509170403 18 109 9.7 14.5 0.00 0.00 0.00 58 1014.6
20260509165903 18 102 9.7 16.1 0.00 0.00 0.00 59 1014.6
20260509165404 18 110 8.0 12.9 0.00 0.00 0.00 59 1014.6
20260509164403 19 113 8.0 12.9 0.00 0.00 0.00 60 1014.7
20260509163904 19 99 9.7 14.5 0.00 0.00 0.00 60 1014.7
20260509162904 19 100 8.0 12.9 0.00 0.00 0.00 58 1014.7